Regional Weather Roundup
Issued by NWS

Home | Current Version | Previous Version | Graphics & Text | Print | Product List | Glossary On
Versions: 1 2 3 4 5 6 7 8 9 10 11 12 13 14 15 16 17 18 19 20 21 22 23 24 25 26 27 28 29 30 31 32 33 34 35 36 37 38 39 40 41 42 43 44 45 46 47 48 49 50
000
ASUS43 KFSD 161802
RWRSD

WEATHER ROUNDUP FOR SOUTH DAKOTA
NATIONAL WEATHER SERVICE SIOUX FALLS SD
1200 PM CST SAT DEC 16 2017

NOTE: "FAIR" INDICATES FEW OR NO CLOUDS BELOW 12,000 FEET WITH NO
SIGNIFICANT WEATHER AND/OR OBSTRUCTIONS TO VISIBILITY.


SDZ001>005-009-010-012>017-161900-
NORTHWEST AND NORTH CENTRAL SOUTH DAKOTA

CITY           SKY/WX    TMP DP  RH WIND       PRES   REMARKS
BUFFALO          N/A     34  26  72 NW14      29.89R WCI  25
FAITH            N/A     36  29  75 NW14      29.95R
MOBRIDGE       CLOUDY    40  31  70 NW9       29.91R
$$

SDZ012>016-024>037-041>051-057-063-072>074-161900-
SOUTHWEST AND SOUTH CENTRAL SOUTH DAKOTA

CITY           SKY/WX    TMP DP  RH WIND       PRES   REMARKS
RAPID CTY ARPT CLOUDY    36  32  85 N17       29.95F
PIERRE         CLOUDY    42  33  70 N16       29.94R
CUSTER         LGT SNOW  31  27  85 CALM      29.88F VSB 3/4
ELLSWORTH AFB  CLOUDY    36  34  93 N16       29.95
PHILIP         CLOUDY    39  31  72 N16       29.96R
PINE RIDGE     CLOUDY    37  30  75 N9        29.95R
SPEARFISH      MIX PCPN  32  28  86 NW8       29.97S WCI  25
WINNER         CLOUDY    40  33  76 NW8       29.93R
$$

SDZ004>011-016>023-039-040-161900-
NORTHEAST SOUTH DAKOTA

CITY           SKY/WX    TMP DP  RH WIND       PRES   REMARKS
ABERDEEN       CLOUDY    41  34  76 N14       29.91R
WATERTOWN      CLOUDY    38  34  85 NW8       29.86S
BROOKINGS      CLOUDY    40  32  73 NW15      29.87
SISSETON         N/A     37  31  78 N7        29.89R
$$

SDZ017-020-022-023-036>040-048>070-161900-
SOUTHEAST SOUTH DAKOTA

CITY           SKY/WX    TMP DP  RH WIND       PRES   REMARKS
SIOUX FALLS    CLOUDY    43  33  68 N12       29.87R
HURON          CLOUDY    41  34  76 NW12      29.91R
CHAMBERLAIN    CLOUDY    40  35  80 CALM      29.91S
MITCHELL       CLOUDY    42  33  70 N12       29.90F
YANKTON        MOSUNNY   42  29  59 NW13      29.88S
$$

ABBREVIATIONS USED IN REMARKS
   TC - TEMPERATURE IN CELSIUS
  WCI - WIND CHILL INDEX
   HX - HEAT INDEX
  VSB - VISIBILITY





USA.gov is the U.S. government's official web portal to all federal, state and local government web resources and services.